Year,Month,Day,Hour,Minute,Value (Times are PST for temperature in C)
2012,10,03,09,26,10.60
2012,10,03,09,27,10.70
2012,10,03,09,28,10.90
2012,10,03,09,29,10.90
2012,10,03,09,30,11.10
2012,10,03,09,31,11.20
2012,10,03,09,32,11.20
2012,10,03,09,33,11.30
2012,10,03,09,34,11.40
2012,10,03,09,35,11.40
2012,10,03,09,36,11.60
2012,10,03,09,37,11.60
2012,10,03,09,38,11.70
2012,10,03,09,39,11.70
2012,10,03,09,40,11.80
2012,10,03,09,41,11.80
2012,10,03,09,42,11.90
2012,10,03,09,43,11.90
2012,10,03,09,44,12.00
2012,10,03,09,45,12.00
2012,10,03,09,46,12.00
2012,10,03,09,47,12.00
2012,10,03,09,48,12.10
2012,10,03,09,49,12.20
2012,10,03,09,50,12.20
2012,10,03,09,51,12.20
2012,10,03,09,52,12.20
2012,10,03,09,53,12.30
2012,10,03,09,54,12.30
2012,10,03,09,55,12.30
2012,10,03,09,56,12.30
2012,10,03,09,57,12.30
2012,10,03,09,58,12.40
2012,10,03,09,59,12.40
2012,10,03,10,00,12.40
2012,10,03,10,01,12.40
2012,10,03,10,02,12.40
2012,10,03,10,03,12.40
2012,10,03,10,04,12.40
2012,10,03,10,05,12.40
2012,10,03,10,06,12.40
2012,10,03,10,07,12.50
2012,10,03,10,08,12.50
2012,10,03,10,09,12.50
2012,10,03,10,10,12.50
2012,10,03,10,11,12.60
2012,10,03,10,12,12.60
2012,10,03,10,13,12.60
2012,10,03,10,14,12.70
2012,10,03,10,15,12.70
2012,10,03,10,16,12.80
2012,10,03,10,17,12.70
2012,10,03,10,18,12.70
2012,10,03,10,19,12.70
2012,10,03,10,20,12.70
2012,10,03,10,21,12.70
2012,10,03,10,22,12.70
2012,10,03,10,23,12.80
2012,10,03,10,24,12.80
2012,10,03,10,25,12.80
2012,10,03,10,26,12.90
2012,10,03,10,27,12.90
2012,10,03,10,28,12.90
2012,10,03,10,29,12.90
2012,10,03,10,30,12.90
2012,10,03,10,31,12.90
2012,10,03,10,32,12.90
2012,10,03,10,33,13.00
2012,10,03,10,34,13.00
2012,10,03,10,35,13.00
2012,10,03,10,36,13.00
2012,10,03,10,37,13.00
2012,10,03,10,38,13.10
2012,10,03,10,39,13.10
2012,10,03,10,40,13.10
2012,10,03,10,41,13.10
2012,10,03,10,42,13.10
2012,10,03,10,43,13.10
2012,10,03,10,44,13.10
2012,10,03,10,45,13.10
2012,10,03,10,46,13.10
2012,10,03,10,47,13.10
2012,10,03,10,48,13.10
2012,10,03,10,49,13.10
2012,10,03,10,50,13.20
2012,10,03,10,51,13.20
2012,10,03,10,52,13.30
2012,10,03,10,53,13.30
2012,10,03,10,54,13.30
2012,10,03,10,55,13.30
2012,10,03,10,56,13.30
2012,10,03,10,57,13.30
2012,10,03,10,58,13.30
2012,10,03,10,59,13.30
2012,10,03,11,00,13.40
2012,10,03,11,01,13.50
2012,10,03,11,02,13.50
2012,10,03,11,03,13.60
2012,10,03,11,04,13.60
2012,10,03,11,05,13.70
2012,10,03,11,06,13.70
2012,10,03,11,07,13.70
2012,10,03,11,08,13.70
2012,10,03,11,09,13.70
2012,10,03,11,10,13.60
2012,10,03,11,11,13.60
2012,10,03,11,12,13.60
2012,10,03,11,13,13.70
2012,10,03,11,14,13.70
2012,10,03,11,15,13.70
2012,10,03,11,16,13.70
2012,10,03,11,17,13.80
2012,10,03,11,18,13.90
2012,10,03,11,19,13.90
2012,10,03,11,20,14.00
2012,10,03,11,21,14.00
2012,10,03,11,22,14.10
2012,10,03,11,23,14.20
2012,10,03,11,24,14.10
2012,10,03,11,25,14.00
2012,10,03,11,26,14.00
2012,10,03,11,27,14.00
2012,10,03,11,28,14.00
2012,10,03,11,29,14.00
2012,10,03,11,30,14.00
2012,10,03,11,31,14.00
2012,10,03,11,32,14.10
2012,10,03,11,33,14.20
2012,10,03,11,34,14.30
2012,10,03,11,35,14.40
2012,10,03,11,36,14.50
2012,10,03,11,37,14.60
2012,10,03,11,38,14.70
2012,10,03,11,39,14.80
2012,10,03,11,40,14.80
2012,10,03,11,41,14.90
2012,10,03,11,42,14.90
2012,10,03,11,43,14.90
2012,10,03,11,44,14.80
2012,10,03,11,45,14.80
2012,10,03,11,46,14.70
2012,10,03,11,47,14.70
2012,10,03,11,48,14.70
2012,10,03,11,49,14.70
2012,10,03,11,50,14.70
2012,10,03,11,51,14.70
2012,10,03,11,52,14.80
2012,10,03,11,53,14.80
2012,10,03,11,54,14.90
2012,10,03,11,55,15.00
2012,10,03,11,56,15.10
2012,10,03,11,57,15.10
2012,10,03,11,58,15.20
2012,10,03,11,59,15.20
2012,10,03,12,00,15.10
2012,10,03,12,01,15.00
2012,10,03,12,02,14.90
2012,10,03,12,03,14.90
2012,10,03,12,04,14.90
2012,10,03,12,05,14.80
2012,10,03,12,06,14.80
2012,10,03,12,07,14.80
2012,10,03,12,08,14.80
2012,10,03,12,09,14.80
2012,10,03,12,10,14.90
2012,10,03,12,11,14.90
2012,10,03,12,12,14.90
2012,10,03,12,13,15.00
2012,10,03,12,14,15.00
2012,10,03,12,15,15.10
2012,10,03,12,16,15.10
2012,10,03,12,17,15.20
2012,10,03,12,18,15.30
2012,10,03,12,19,15.30
2012,10,03,12,20,15.30
2012,10,03,12,21,15.30
2012,10,03,12,22,15.20
2012,10,03,12,23,15.20
2012,10,03,12,24,15.20
2012,10,03,12,25,15.10
2012,10,03,12,26,15.10
2012,10,03,12,27,15.00
2012,10,03,12,28,15.00
2012,10,03,12,29,15.00
2012,10,03,12,30,15.10
2012,10,03,12,31,15.10
2012,10,03,12,32,15.10
2012,10,03,12,33,15.20
2012,10,03,12,34,15.20
2012,10,03,12,35,15.20
2012,10,03,12,36,15.30
2012,10,03,12,37,15.20
2012,10,03,12,38,15.20
2012,10,03,12,39,15.20
2012,10,03,12,40,15.20
2012,10,03,12,41,15.30
2012,10,03,12,42,15.30
2012,10,03,12,43,15.30
2012,10,03,12,44,15.40
2012,10,03,12,45,15.50
2012,10,03,12,46,15.50
2012,10,03,12,47,15.60
2012,10,03,12,48,15.60
2012,10,03,12,49,15.60
2012,10,03,12,50,15.60
2012,10,03,12,51,15.60
2012,10,03,12,52,15.70
2012,10,03,12,53,15.70
2012,10,03,12,54,15.70
2012,10,03,12,55,15.80
2012,10,03,12,56,15.80
2012,10,03,12,57,15.80
2012,10,03,12,58,15.80
2012,10,03,12,59,15.80
2012,10,03,13,00,15.90
2012,10,03,13,01,15.90
2012,10,03,13,02,15.80
2012,10,03,13,03,15.80
2012,10,03,13,04,15.80
2012,10,03,13,05,15.80
2012,10,03,13,06,15.80
2012,10,03,13,07,15.80
2012,10,03,13,08,15.80
2012,10,03,13,09,15.80
2012,10,03,13,10,15.80
2012,10,03,13,11,15.90
2012,10,03,13,12,15.90
2012,10,03,13,13,15.90
2012,10,03,13,14,15.80
2012,10,03,13,15,15.80
2012,10,03,13,16,15.70
2012,10,03,13,17,15.70
2012,10,03,13,18,15.70
2012,10,03,13,19,15.80
2012,10,03,13,20,15.80
2012,10,03,13,21,15.90
2012,10,03,13,22,16.00
2012,10,03,13,23,16.10
2012,10,03,13,24,16.10
2012,10,03,13,25,16.10
2012,10,03,13,26,16.10
2012,10,03,13,27,16.10
2012,10,03,13,28,16.10
2012,10,03,13,29,16.10
2012,10,03,13,30,16.10
2012,10,03,13,31,16.10
2012,10,03,13,32,15.90
2012,10,03,13,33,15.90
2012,10,03,13,34,15.80
2012,10,03,13,35,15.80
2012,10,03,13,36,15.70
2012,10,03,13,37,15.70
2012,10,03,13,38,15.70
2012,10,03,13,39,15.70
2012,10,03,13,40,15.80
2012,10,03,13,41,15.80
2012,10,03,13,42,15.80
2012,10,03,13,43,15.90
2012,10,03,13,44,15.90
2012,10,03,13,45,15.80
2012,10,03,13,46,15.90
2012,10,03,13,47,15.90
2012,10,03,13,48,16.00
2012,10,03,13,49,16.10
2012,10,03,13,50,16.00
2012,10,03,13,51,15.90
2012,10,03,13,52,15.90
2012,10,03,13,53,15.80
2012,10,03,13,54,15.80
2012,10,03,13,55,15.80
2012,10,03,13,56,15.80
2012,10,03,13,57,15.80
2012,10,03,13,58,15.80
2012,10,03,13,59,15.80
2012,10,03,14,00,15.90
2012,10,03,14,01,15.90
2012,10,03,14,02,15.90
2012,10,03,14,03,15.90
2012,10,03,14,04,15.80
2012,10,03,14,05,15.80
2012,10,03,14,06,15.80
2012,10,03,14,07,15.80
2012,10,03,14,08,15.70
2012,10,03,14,09,15.70
2012,10,03,14,10,15.80
2012,10,03,14,11,15.80
2012,10,03,14,12,15.80
2012,10,03,14,13,15.80
2012,10,03,14,14,15.80
2012,10,03,14,15,15.90
2012,10,03,14,16,15.90
2012,10,03,14,17,15.90
2012,10,03,14,18,15.90
2012,10,03,14,19,15.90
2012,10,03,14,20,16.00
2012,10,03,14,21,16.10
2012,10,03,14,22,16.10
2012,10,03,14,23,16.10
2012,10,03,14,24,16.10
2012,10,03,14,25,16.10
2012,10,03,14,26,16.10
2012,10,03,14,27,16.10
2012,10,03,14,28,16.10
2012,10,03,14,29,16.10
2012,10,03,14,30,16.10
2012,10,03,14,31,16.10
2012,10,03,14,32,16.20
2012,10,03,14,33,16.20
2012,10,03,14,34,16.20
2012,10,03,14,35,16.20
2012,10,03,14,36,16.20
2012,10,03,14,37,16.20
2012,10,03,14,38,16.20
2012,10,03,14,39,16.30
2012,10,03,14,40,16.30
2012,10,03,14,41,16.30
2012,10,03,14,42,16.40
2012,10,03,14,43,16.40
2012,10,03,14,44,16.40
2012,10,03,14,45,16.30
2012,10,03,14,46,16.30
2012,10,03,14,47,16.20
2012,10,03,14,48,16.20
2012,10,03,14,49,16.20
2012,10,03,14,50,16.10
2012,10,03,14,51,16.10
2012,10,03,14,52,16.10
2012,10,03,14,53,15.90
2012,10,03,14,54,15.90
2012,10,03,14,55,15.80
2012,10,03,14,56,15.80
2012,10,03,14,57,15.80
2012,10,03,14,58,15.80
2012,10,03,14,59,15.70
2012,10,03,15,00,15.70
2012,10,03,15,01,15.70
2012,10,03,15,02,15.60
2012,10,03,15,03,15.60
2012,10,03,15,04,15.60
2012,10,03,15,05,15.50
2012,10,03,15,06,15.50
2012,10,03,15,07,15.40
2012,10,03,15,08,15.40
2012,10,03,15,09,15.40
2012,10,03,15,10,15.40
2012,10,03,15,11,15.30
2012,10,03,15,12,15.30
2012,10,03,15,13,15.30
2012,10,03,15,14,15.30
2012,10,03,15,15,15.30
2012,10,03,15,16,15.20
2012,10,03,15,17,15.20
2012,10,03,15,18,15.10
2012,10,03,15,19,15.10
2012,10,03,15,20,15.10
2012,10,03,15,21,15.00
2012,10,03,15,22,15.00
2012,10,03,15,23,15.00
2012,10,03,15,24,15.00
2012,10,03,15,25,15.00
2012,10,03,15,26,15.00
2012,10,03,15,27,15.00
2012,10,03,15,28,15.00
2012,10,03,15,29,15.00
2012,10,03,15,30,15.00
2012,10,03,15,31,15.00
2012,10,03,15,32,15.00
2012,10,03,15,33,15.00
2012,10,03,15,34,14.90
2012,10,03,15,35,14.90
2012,10,03,15,36,14.90
2012,10,03,15,37,14.90
2012,10,03,15,38,14.90
2012,10,03,15,39,14.90
2012,10,03,15,40,14.90
2012,10,03,15,41,14.90
2012,10,03,15,42,14.90
2012,10,03,15,43,14.90
2012,10,03,15,44,14.90
2012,10,03,15,45,14.90
2012,10,03,15,46,14.80
2012,10,03,15,47,14.80
2012,10,03,15,48,14.80
2012,10,03,15,49,14.80
2012,10,03,15,50,14.80
2012,10,03,15,51,14.80
2012,10,03,15,52,14.80
2012,10,03,15,53,14.80
2012,10,03,15,54,14.80
2012,10,03,15,55,14.80
2012,10,03,15,56,14.80
2012,10,03,15,57,14.80
2012,10,03,15,58,14.80
2012,10,03,15,59,14.80
2012,10,03,16,00,14.70
2012,10,03,16,01,14.70
2012,10,03,16,02,14.70
2012,10,03,16,03,14.70
2012,10,03,16,04,14.60
2012,10,03,16,05,14.60
2012,10,03,16,06,14.60
2012,10,03,16,07,14.60
2012,10,03,16,08,14.50
2012,10,03,16,09,14.50
2012,10,03,16,10,14.50
2012,10,03,16,11,14.40
2012,10,03,16,12,14.40
2012,10,03,16,13,14.40
2012,10,03,16,14,14.40
2012,10,03,16,15,14.30
2012,10,03,16,16,14.30
2012,10,03,16,17,14.30
2012,10,03,16,18,14.30
2012,10,03,16,19,14.30
2012,10,03,16,20,14.30
2012,10,03,16,21,14.30
2012,10,03,16,22,14.20
2012,10,03,16,23,14.20
2012,10,03,16,24,14.20
2012,10,03,16,25,14.20
2012,10,03,16,26,14.20
2012,10,03,16,27,14.20
2012,10,03,16,28,14.20
2012,10,03,16,29,14.20
2012,10,03,16,30,14.20
2012,10,03,16,31,14.20
2012,10,03,16,32,14.20
2012,10,03,16,33,14.20
2012,10,03,16,34,14.20
2012,10,03,16,35,14.20
2012,10,03,16,36,14.20
2012,10,03,16,37,14.20
2012,10,03,16,38,14.10
2012,10,03,16,39,14.10
2012,10,03,16,40,14.10
2012,10,03,16,41,14.10
2012,10,03,16,42,14.00
2012,10,03,16,43,14.00
2012,10,03,16,44,14.00
2012,10,03,16,45,14.00
2012,10,03,16,46,14.00
2012,10,03,16,47,14.00
2012,10,03,16,48,14.00
2012,10,03,16,49,14.00
2012,10,03,16,50,14.00
2012,10,03,16,51,13.90
2012,10,03,16,52,13.90
2012,10,03,16,53,13.90
2012,10,03,16,54,13.90
2012,10,03,16,55,13.90
2012,10,03,16,56,13.90
2012,10,03,16,57,13.80
2012,10,03,16,58,13.80
2012,10,03,16,59,13.80
2012,10,03,17,00,13.80
2012,10,03,17,01,13.80
2012,10,03,17,02,13.80
2012,10,03,17,03,13.80
2012,10,03,17,04,13.80
2012,10,03,17,05,13.80
2012,10,03,17,06,13.80
2012,10,03,17,07,13.80
2012,10,03,17,08,13.80
2012,10,03,17,09,13.80
2012,10,03,17,10,13.80
2012,10,03,17,11,13.80
2012,10,03,17,12,13.80
2012,10,03,17,13,13.80
2012,10,03,17,14,13.80
2012,10,03,17,15,13.80
2012,10,03,17,16,13.80
2012,10,03,17,17,13.70
2012,10,03,17,18,13.70
2012,10,03,17,19,13.70
2012,10,03,17,20,13.70
2012,10,03,17,21,13.70
2012,10,03,17,22,13.70
2012,10,03,17,23,13.70
2012,10,03,17,24,13.70
2012,10,03,17,25,13.70
2012,10,03,17,26,13.70
2012,10,03,17,27,13.60
2012,10,03,17,28,13.60
2012,10,03,17,29,13.60
2012,10,03,17,30,13.60
2012,10,03,17,31,13.60
2012,10,03,17,32,13.50
2012,10,03,17,33,13.50
2012,10,03,17,34,13.50
2012,10,03,17,35,13.40
2012,10,03,17,36,13.40
2012,10,03,17,37,13.40
2012,10,03,17,38,13.30
2012,10,03,17,39,13.30
2012,10,03,17,40,13.30
2012,10,03,17,41,13.30
2012,10,03,17,42,13.30
2012,10,03,17,43,13.30
2012,10,03,17,44,13.20
2012,10,03,17,45,13.20
2012,10,03,17,46,13.20
2012,10,03,17,47,13.20
2012,10,03,17,48,13.10
2012,10,03,17,49,13.10
2012,10,03,17,50,13.10
2012,10,03,17,51,13.00
2012,10,03,17,52,13.00
2012,10,03,17,53,13.00
2012,10,03,17,54,12.90
2012,10,03,17,55,12.90
2012,10,03,17,56,12.90
2012,10,03,17,57,12.80
2012,10,03,17,58,12.80
2012,10,03,17,59,12.80
2012,10,03,18,00,12.80
2012,10,03,18,01,12.80
2012,10,03,18,02,12.80
2012,10,03,18,03,12.70
2012,10,03,18,04,12.70
2012,10,03,18,05,12.70
2012,10,03,18,06,12.70
2012,10,03,18,07,12.60
2012,10,03,18,08,12.60
2012,10,03,18,09,12.60
2012,10,03,18,10,12.60
2012,10,03,18,11,12.50
2012,10,03,18,12,12.50
2012,10,03,18,13,12.50
2012,10,03,18,14,12.40
2012,10,03,18,15,12.40
2012,10,03,18,16,12.40
2012,10,03,18,17,12.30
2012,10,03,18,18,12.30
2012,10,03,18,19,12.30
2012,10,03,18,20,12.30
2012,10,03,18,21,12.30
2012,10,03,18,22,12.30
2012,10,03,18,23,12.20
2012,10,03,18,24,12.20
2012,10,03,18,25,12.20
2012,10,03,18,26,12.20
2012,10,03,18,27,12.10
2012,10,03,18,28,12.10
2012,10,03,18,29,12.10
2012,10,03,18,30,12.10
2012,10,03,18,31,12.10
2012,10,03,18,32,12.00
2012,10,03,18,33,12.00
2012,10,03,18,34,12.00
2012,10,03,18,35,12.00
2012,10,03,18,36,12.00
2012,10,03,18,37,11.90
2012,10,03,18,38,11.90
2012,10,03,18,39,11.90
2012,10,03,18,40,11.80
2012,10,03,18,41,11.80
2012,10,03,18,42,11.80
2012,10,03,18,43,11.80
2012,10,03,18,44,11.80
2012,10,03,18,45,11.80
2012,10,03,18,46,11.80
2012,10,03,18,47,11.80
2012,10,03,18,48,11.80
2012,10,03,18,49,11.80
2012,10,03,18,50,11.80
2012,10,03,18,51,11.80
2012,10,03,18,52,11.80
2012,10,03,18,53,11.80
2012,10,03,18,54,11.80
2012,10,03,18,55,11.80
2012,10,03,18,56,11.80
2012,10,03,18,57,11.80
2012,10,03,18,58,11.80
2012,10,03,20,05,10.70
2012,10,03,20,06,10.70
2012,10,03,20,07,10.70
2012,10,03,20,08,10.70
2012,10,03,20,09,10.70
2012,10,03,20,10,10.70
2012,10,03,20,11,10.70
2012,10,03,20,12,10.60
2012,10,03,20,13,10.60
2012,10,03,20,14,10.60
2012,10,03,20,15,10.60
2012,10,03,20,16,10.60
2012,10,03,20,17,10.60
2012,10,03,20,18,10.60
2012,10,03,20,19,10.60
2012,10,03,20,20,10.60
2012,10,03,20,21,10.60
2012,10,03,20,22,10.50
2012,10,03,20,23,10.40
2012,10,03,20,24,10.40
2012,10,03,20,25,10.40
2012,10,03,20,26,10.40
2012,10,03,20,27,10.40
2012,10,03,20,28,10.40
2012,10,03,20,29,10.30
2012,10,03,20,30,10.30
2012,10,03,20,31,10.20
2012,10,03,20,32,10.20
2012,10,03,20,33,10.20
2012,10,03,20,34,10.10
2012,10,03,20,35,10.10
2012,10,03,20,36,10.10
2012,10,03,20,37,9.90
2012,10,03,20,38,9.90
2012,10,03,20,39,9.90
2012,10,03,20,40,9.80
2012,10,03,20,41,9.80
2012,10,03,20,42,9.70
2012,10,03,20,43,9.70
2012,10,03,20,44,9.60
2012,10,03,20,45,9.60
2012,10,03,20,46,9.50
2012,10,03,20,47,9.40
2012,10,03,20,48,9.40
2012,10,03,20,49,9.30
2012,10,03,20,50,9.30
2012,10,03,20,51,9.20
2012,10,03,20,52,9.20
2012,10,03,20,53,9.20
2012,10,03,20,54,9.10
2012,10,03,20,55,9.00
2012,10,03,20,56,9.00
2012,10,03,20,57,9.00
2012,10,03,20,58,8.90
2012,10,03,20,59,8.90
2012,10,03,21,00,8.80
2012,10,03,21,01,8.80
2012,10,03,21,02,8.70
2012,10,03,21,03,8.70
2012,10,03,21,04,8.70
2012,10,03,21,05,8.60
2012,10,03,21,06,8.60
2012,10,03,21,07,8.50
2012,10,03,21,08,8.50
2012,10,03,21,09,8.40
2012,10,03,21,10,8.40
2012,10,03,21,11,8.30
2012,10,03,21,12,8.30
2012,10,03,21,13,8.20
2012,10,03,21,14,8.20
2012,10,03,21,15,8.20
2012,10,03,21,16,8.10
2012,10,03,21,17,8.10
2012,10,03,21,18,8.00
2012,10,03,21,19,8.00
2012,10,03,21,20,8.00
2012,10,03,21,21,7.90
2012,10,03,21,22,7.90
2012,10,03,21,23,7.80
2012,10,03,21,24,7.80
2012,10,03,21,25,7.80
2012,10,03,21,26,7.80
2012,10,03,21,27,7.70
2012,10,03,21,28,7.70
2012,10,03,21,29,7.70
2012,10,03,21,30,7.60
2012,10,03,21,31,7.60
2012,10,03,21,32,7.60
2012,10,03,21,33,7.50
2012,10,03,21,34,7.50
2012,10,03,21,35,7.50
2012,10,03,21,36,7.50
2012,10,03,21,37,7.40
2012,10,03,21,38,7.40
2012,10,03,21,39,7.40
2012,10,03,21,40,7.30
2012,10,03,21,41,7.30
2012,10,03,21,42,7.30
2012,10,03,21,43,7.30
2012,10,03,21,44,7.30
2012,10,03,21,45,7.30
2012,10,03,21,46,7.30
2012,10,03,21,47,7.30
2012,10,03,21,48,7.50
2012,10,03,21,49,7.60
2012,10,03,21,50,7.60
2012,10,03,21,51,7.70
2012,10,03,21,52,7.80
2012,10,03,21,53,7.80
2012,10,03,21,54,7.90
2012,10,03,21,55,7.90
2012,10,03,21,56,8.00
2012,10,03,21,57,8.10
2012,10,03,21,58,8.20
2012,10,03,21,59,8.30
2012,10,03,22,00,8.40
2012,10,03,22,01,8.50
2012,10,03,22,02,8.60
2012,10,03,22,03,8.70
2012,10,03,22,04,8.70
2012,10,03,22,05,8.80
2012,10,03,22,06,8.90
2012,10,03,22,07,9.00
2012,10,03,22,08,9.10
2012,10,03,22,09,9.10
2012,10,03,22,10,9.20
2012,10,03,22,11,9.20
2012,10,03,22,12,9.30
2012,10,03,22,13,9.40
2012,10,03,22,14,9.40
2012,10,03,22,15,9.50
2012,10,03,22,16,9.60
2012,10,03,22,17,9.60
2012,10,03,22,18,9.70
2012,10,03,22,19,9.70
2012,10,03,22,20,9.70
2012,10,03,22,21,9.70
2012,10,03,22,22,9.70
2012,10,03,22,23,9.70
2012,10,03,22,24,9.70
2012,10,03,22,25,9.80
2012,10,03,22,26,9.80
2012,10,03,22,27,9.80
2012,10,03,22,28,9.80
2012,10,03,22,29,9.80
2012,10,03,22,30,9.80
2012,10,03,22,31,9.80
2012,10,03,22,32,9.80
2012,10,03,22,33,9.80
2012,10,03,22,34,9.80
2012,10,03,22,35,9.90
2012,10,03,22,36,9.90
2012,10,03,22,37,9.90
2012,10,03,22,38,9.90
2012,10,03,22,39,9.90
2012,10,03,22,40,9.90
2012,10,03,22,41,9.90
2012,10,03,22,42,9.90
2012,10,03,22,43,9.90
2012,10,03,22,44,9.90
2012,10,03,22,45,9.90
2012,10,03,22,46,9.90
2012,10,03,22,47,9.90
2012,10,03,22,48,9.90
2012,10,03,22,49,9.90
2012,10,03,22,50,9.90
2012,10,03,22,51,9.90
2012,10,03,22,52,9.90
2012,10,03,22,53,9.90
2012,10,03,22,54,9.90
2012,10,03,22,55,10.00
2012,10,03,22,56,10.10
2012,10,03,22,57,10.10
2012,10,03,22,58,10.10
2012,10,03,22,59,10.10
2012,10,03,23,00,10.10
2012,10,03,23,01,10.10
2012,10,03,23,02,10.10
2012,10,03,23,03,10.10
2012,10,03,23,04,10.10
2012,10,03,23,05,10.20
2012,10,03,23,06,10.20
2012,10,03,23,07,10.20
2012,10,03,23,08,10.20
2012,10,03,23,09,10.20
2012,10,03,23,10,10.20
2012,10,03,23,11,10.20
2012,10,03,23,12,10.20
2012,10,03,23,13,10.20
2012,10,03,23,14,10.20
2012,10,03,23,15,10.20
2012,10,03,23,16,10.20
2012,10,03,23,17,10.20
2012,10,03,23,18,10.20
2012,10,03,23,19,10.20
2012,10,03,23,20,10.20
2012,10,03,23,21,10.20
2012,10,03,23,22,10.20
2012,10,03,23,23,10.20
2012,10,03,23,24,10.20
2012,10,03,23,25,10.30
2012,10,03,23,26,10.30
2012,10,03,23,27,10.30
2012,10,03,23,28,10.30
2012,10,03,23,29,10.40
2012,10,03,23,30,10.40
2012,10,03,23,31,10.40
2012,10,03,23,32,10.40
2012,10,03,23,33,10.40
2012,10,03,23,34,10.40
2012,10,03,23,35,10.40
2012,10,03,23,36,10.40
2012,10,03,23,37,10.40
2012,10,03,23,38,10.40
2012,10,03,23,39,10.40
2012,10,03,23,40,10.40
2012,10,03,23,41,10.40
2012,10,03,23,42,10.40
2012,10,03,23,43,10.40
2012,10,03,23,44,10.40
2012,10,03,23,45,10.40
2012,10,03,23,46,10.40
2012,10,03,23,47,10.40
2012,10,03,23,48,10.40
2012,10,03,23,49,10.40
2012,10,03,23,50,10.40
2012,10,03,23,51,10.30
2012,10,03,23,52,10.30
2012,10,03,23,53,10.30
2012,10,03,23,54,10.30
2012,10,03,23,55,10.30
2012,10,03,23,56,10.30
2012,10,03,23,57,10.30
2012,10,03,23,58,10.40
2012,10,03,23,59,10.40
